| time (UTC) | temp F | wind direction | speed MPH | gust MPH | rain 1hr in | rain 24hr in | rain mn in | humidity % | barometer mb |
| 20260505213517 | 66 | 229 | 2.0 | 6.0 | 0.00 | 0.07 | 0.07 | 64 | 1014.9 |
| 20260505213019 | 66 | 217 | 2.0 | 8.0 | 0.00 | 0.07 | 0.07 | 66 | 1014.9 |
| 20260505212956 | 66 | 236 | 3.0 | 8.0 | 0.00 | 0.07 | 0.07 | 66 | 1015.0 |
| 20260505212014 | 65 | 264 | 4.0 | 8.0 | 0.00 | 0.07 | 0.07 | 67 | 1015.0 |
| 20260505211514 | 64 | 236 | 4.0 | 8.0 | 0.00 | 0.07 | 0.07 | 69 | 1015.0 |
| 20260505211011 | 64 | 217 | 4.0 | 9.0 | 0.00 | 0.07 | 0.07 | 68 | 1015.1 |
| 20260505210512 | 64 | 261 | 4.0 | 9.0 | 0.00 | 0.07 | 0.07 | 68 | 1015.1 |
| 20260505210011 | 64 | 264 | 3.0 | 8.0 | 0.00 | 0.07 | 0.07 | 68 | 1015.0 |
| 20260505205511 | 64 | 222 | 3.0 | 7.0 | 0.00 | 0.07 | 0.07 | 68 | 1015.1 |
| 20260505205012 | 65 | 251 | 3.0 | 7.0 | 0.00 | 0.07 | 0.07 | 68 | 1015.1 |
| 20260505204509 | 65 | 267 | 2.0 | 7.0 | 0.00 | 0.07 | 0.07 | 68 | 1015.1 |
| 20260505204009 | 65 | 288 | 2.0 | 4.0 | 0.00 | 0.07 | 0.07 | 67 | 1015.1 |
| 20260505203507 | 65 | 329 | 2.0 | 5.0 | 0.00 | 0.07 | 0.07 | 67 | 1015.2 |
| 20260505202953 | 65 | 315 | 2.0 | 5.0 | 0.00 | 0.07 | 0.07 | 67 | 1015.2 |
| 20260505202452 | 65 | 317 | 3.0 | 5.0 | 0.00 | 0.07 | 0.07 | 66 | 1015.2 |
| 20260505201941 | 65 | 315 | 4.0 | 8.0 | 0.00 | 0.07 | 0.07 | 66 | 1015.2 |
| 20260505201439 | 65 | 324 | 2.0 | 8.0 | 0.00 | 0.07 | 0.07 | 66 | 1015.2 |
| 20260505200939 | 65 | 294 | 2.0 | 7.0 | 0.00 | 0.07 | 0.07 | 66 | 1015.2 |
| 20260505200916 | 65 | 292 | 3.0 | 8.0 | 0.00 | 0.07 | 0.07 | 66 | 1015.2 |
| 20260505195938 | 65 | 242 | 3.0 | 8.0 | 0.00 | 0.07 | 0.07 | 66 | 1015.1 |
| 20260505195440 | 66 | 245 | 3.0 | 7.0 | 0.00 | 0.07 | 0.07 | 67 | 1015.2 |
| 20260505195159 | 65 | 292 | 3.0 | 7.0 | 0.00 | 0.07 | 0.07 | 65 | 1015.2 |
| 20260505194437 | 66 | 299 | 3.0 | 7.0 | 0.00 | 0.07 | 0.07 | 68 | 1015.3 |
| 20260505193934 | 65 | 275 | 3.0 | 8.0 | 0.00 | 0.07 | 0.07 | 69 | 1015.2 |
| 20260505193433 | 64 | 232 | 4.0 | 9.0 | 0.00 | 0.07 | 0.07 | 70 | 1015.3 |
| 20260505192931 | 63 | 257 | 4.0 | 9.0 | 0.00 | 0.07 | 0.07 | 71 | 1015.3 |
| 20260505192427 | 62 | 269 | 5.0 | 9.0 | 0.00 | 0.07 | 0.07 | 72 | 1015.4 |
| 20260505191928 | 62 | 302 | 5.0 | 10.0 | 0.00 | 0.07 | 0.07 | 72 | 1015.3 |
| 20260505191423 | 62 | 317 | 4.0 | 10.0 | 0.00 | 0.07 | 0.07 | 73 | 1015.2 |
| 20260505191143 | 61 | 300 | 4.0 | 9.0 | 0.00 | 0.07 | 0.07 | 74 | 1015.2 |
| 20260505190421 | 61 | 277 | 4.0 | 10.0 | 0.00 | 0.07 | 0.07 | 74 | 1015.2 |
| 20260505185921 | 61 | 261 | 5.0 | 10.0 | 0.00 | 0.07 | 0.07 | 74 | 1015.3 |
| 20260505185421 | 61 | 267 | 5.0 | 10.0 | 0.00 | 0.07 | 0.07 | 73 | 1015.3 |
| 20260505184925 | 61 | 279 | 6.0 | 13.0 | 0.00 | 0.07 | 0.07 | 74 | 1015.3 |
| 20260505184639 | 61 | 304 | 6.0 | 13.0 | 0.00 | 0.07 | 0.07 | 75 | 1015.2 |
| 20260505184143 | 61 | 257 | 5.0 | 10.0 | 0.00 | 0.07 | 0.07 | 74 | 1015.2 |
| 20260505183417 | 60 | 255 | 5.0 | 10.0 | 0.00 | 0.07 | 0.07 | 75 | 1015.2 |
| 20260505182917 | 60 | 310 | 5.0 | 10.0 | 0.00 | 0.07 | 0.07 | 75 | 1015.2 |
| 20260505182906 | 60 | 299 | 5.0 | 10.0 | 0.00 | 0.07 | 0.07 | 76 | 1015.2 |
| 20260505181917 | 60 | 275 | 5.0 | 10.0 | 0.00 | 0.07 | 0.07 | 76 | 1015.1 |
| 20260505181642 | 60 | 351 | 5.0 | 12.0 | 0.00 | 0.07 | 0.07 | 77 | 1015.1 |
| 20260505180916 | 60 | 300 | 5.0 | 12.0 | 0.00 | 0.07 | 0.07 | 77 | 1015.2 |
| 20260505180415 | 60 | 312 | 4.0 | 10.0 | 0.00 | 0.07 | 0.07 | 78 | 1015.1 |
| 20260505175915 | 59 | 318 | 5.0 | 9.0 | 0.00 | 0.07 | 0.07 | 78 | 1015.1 |
| 20260505175414 | 59 | 300 | 5.0 | 10.0 | 0.00 | 0.07 | 0.07 | 79 | 1015.1 |
| 20260505174915 | 59 | 317 | 4.0 | 10.0 | 0.00 | 0.07 | 0.07 | 79 | 1015.1 |
| 20260505174414 | 58 | 307 | 5.0 | 10.0 | 0.00 | 0.07 | 0.07 | 80 | 1015.0 |
| 20260505173909 | 58 | 296 | 5.0 | 10.0 | 0.00 | 0.07 | 0.07 | 80 | 1014.9 |
| 20260505173410 | 58 | 296 | 5.0 | 10.0 | 0.00 | 0.07 | 0.07 | 80 | 1014.8 |
| 20260505172909 | 58 | 313 | 4.0 | 10.0 | 0.00 | 0.07 | 0.07 | 81 | 1014.8 |
| 20260505172405 | 58 | 321 | 4.0 | 10.0 | 0.00 | 0.07 | 0.07 | 81 | 1014.8 |
| 20260505172125 | 57 | 307 | 5.0 | 11.0 | 0.00 | 0.07 | 0.07 | 81 | 1014.8 |
| 20260505171405 | 57 | 324 | 5.0 | 12.0 | 0.00 | 0.07 | 0.07 | 82 | 1014.8 |
| 20260505170905 | 57 | 304 | 5.0 | 12.0 | 0.00 | 0.07 | 0.07 | 82 | 1014.8 |
| 20260505170404 | 57 | 307 | 4.0 | 9.0 | 0.00 | 0.07 | 0.07 | 83 | 1014.8 |
| 20260505170122 | 57 | 298 | 4.0 | 9.0 | 0.00 | 0.07 | 0.07 | 83 | 1014.8 |
| 20260505165401 | 56 | 295 | 4.0 | 8.0 | 0.00 | 0.07 | 0.07 | 83 | 1014.8 |
| 20260505165119 | 56 | 312 | 4.0 | 9.0 | 0.00 | 0.07 | 0.07 | 84 | 1014.7 |
| 20260505164359 | 56 | 311 | 4.0 | 11.0 | 0.00 | 0.07 | 0.07 | 85 | 1014.8 |
| 20260505163900 | 56 | 304 | 4.0 | 11.0 | 0.00 | 0.07 | 0.07 | 85 | 1014.7 |
| 20260505163358 | 56 | 314 | 4.0 | 8.0 | 0.00 | 0.07 | 0.07 | 86 | 1014.7 |
| 20260505162856 | 56 | 304 | 3.0 | 9.0 | 0.00 | 0.07 | 0.07 | 87 | 1014.7 |
| 20260505162353 | 55 | 309 | 2.0 | 9.0 | 0.00 | 0.07 | 0.07 | 87 | 1014.7 |
| 20260505161851 | 55 | 258 | 2.0 | 6.0 | 0.00 | 0.07 | 0.07 | 87 | 1014.7 |
| 20260505161351 | 55 | 295 | 3.0 | 7.0 | 0.00 | 0.07 | 0.07 | 87 | 1014.7 |
| 20260505160851 | 55 | 323 | 2.0 | 7.0 | 0.00 | 0.07 | 0.07 | 88 | 1014.7 |
| 20260505160347 | 55 | 253 | 0.0 | 4.0 | 0.00 | 0.07 | 0.07 | 88 | 1014.6 |
| 20260505160109 | 55 | 267 | 0.0 | 0.0 | 0.00 | 0.07 | 0.07 | 88 | 1014.6 |
| 20260505153336 | 55 | 267 | 0.0 | 2.0 | 0.00 | 0.07 | 0.07 | 88 | 1014.5 |
| 20260505152836 | 55 | 267 | 0.0 | 2.0 | 0.00 | 0.07 | 0.07 | 89 | 1014.5 |
| 20260505152336 | 55 | 268 | 0.0 | 2.0 | 0.00 | 0.07 | 0.07 | 89 | 1014.4 |
| 20260505151836 | 55 | 268 | 0.0 | 2.0 | 0.00 | 0.07 | 0.07 | 89 | 1014.4 |
| 20260505151335 | 55 | 269 | 0.0 | 2.0 | 0.00 | 0.07 | 0.07 | 89 | 1014.4 |
| 20260505150832 | 54 | 269 | 1.0 | 3.0 | 0.00 | 0.07 | 0.07 | 89 | 1014.3 |
| 20260505150333 | 54 | 281 | 0.0 | 3.0 | 0.00 | 0.07 | 0.07 | 89 | 1014.3 |
| 20260505140321 | 54 | 264 | 1.0 | 4.0 | 0.00 | 0.07 | 0.07 | 88 | 1013.9 |
| 20260505130307 | 54 | 209 | 0.0 | 0.0 | 0.00 | 0.07 | 0.07 | 88 | 1013.4 |
| 20260505124804 | 53 | 209 | 0.0 | 0.0 | 0.00 | 0.07 | 0.07 | 88 | 1013.3 |
| 20260505124301 | 53 | 209 | 0.0 | 0.0 | 0.00 | 0.07 | 0.07 | 87 | 1013.3 |
| 20260505124243 | 53 | 209 | 0.0 | 1.0 | 0.00 | 0.07 | 0.07 | 87 | 1013.4 |
| 20260505123258 | 53 | 209 | 0.0 | 1.0 | 0.00 | 0.07 | 0.07 | 87 | 1013.4 |
| 20260505122755 | 53 | 209 | 0.0 | 1.0 | 0.00 | 0.07 | 0.07 | 87 | 1013.4 |
| 20260505122252 | 53 | 209 | 0.0 | 0.0 | 0.00 | 0.07 | 0.07 | 87 | 1013.4 |
| 20260505121752 | 53 | 209 | 0.0 | 1.0 | 0.00 | 0.07 | 0.07 | 87 | 1013.3 |
| 20260505121243 | 53 | 209 | 0.0 | 1.0 | 0.00 | 0.07 | 0.07 | 87 | 1013.4 |
| 20260505120742 | 53 | 209 | 0.0 | 0.0 | 0.00 | 0.07 | 0.07 | 87 | 1013.3 |
| 20260505120242 | 53 | 209 | 0.0 | 0.0 | 0.00 | 0.07 | 0.07 | 87 | 1013.5 |
| 20260505115743 | 53 | 209 | 0.0 | 0.0 | 0.01 | 0.07 | 0.07 | 87 | 1013.6 |
| 20260505115506 | 54 | 209 | 0.0 | 0.0 | 0.01 | 0.07 | 0.07 | 86 | 1013.6 |
| 20260505114741 | 54 | 209 | 0.0 | 0.0 | 0.01 | 0.07 | 0.07 | 86 | 1013.6 |
| 20260505114241 | 54 | 209 | 0.0 | 2.0 | 0.01 | 0.07 | 0.07 | 86 | 1013.6 |
| 20260505114000 | 54 | 209 | 1.0 | 3.0 | 0.01 | 0.07 | 0.07 | 86 | 1013.6 |
| 20260505113240 | 54 | 209 | 2.0 | 5.0 | 0.01 | 0.07 | 0.07 | 86 | 1013.6 |
| 20260505112737 | 54 | 209 | 2.0 | 5.0 | 0.01 | 0.07 | 0.07 | 86 | 1013.5 |
| 20260505112235 | 54 | 218 | 2.0 | 5.0 | 0.01 | 0.07 | 0.07 | 86 | 1013.6 |
| 20260505111735 | 54 | 254 | 1.0 | 3.0 | 0.02 | 0.07 | 0.07 | 86 | 1013.7 |
| 20260505111719 | 54 | 265 | 1.0 | 3.0 | 0.02 | 0.07 | 0.07 | 86 | 1013.7 |
| 20260505110732 | 54 | 275 | 0.0 | 3.0 | 0.02 | 0.07 | 0.07 | 86 | 1013.8 |
| 20260505110232 | 54 | 278 | 0.0 | 2.0 | 0.02 | 0.07 | 0.07 | 86 | 1013.9 |
| 20260505101724 | 54 | 279 | 0.0 | 2.0 | 0.03 | 0.05 | 0.05 | 85 | 1013.9 |
| 20260505101222 | 54 | 279 | 0.0 | 2.0 | 0.03 | 0.05 | 0.05 | 85 | 1013.9 |
| 20260505100722 | 54 | 279 | 1.0 | 3.0 | 0.04 | 0.05 | 0.05 | 85 | 1013.9 |
| 20260505100222 | 54 | 279 | 1.0 | 3.0 | 0.04 | 0.05 | 0.05 | 85 | 1013.9 |
| 20260505095719 | 54 | 280 | 1.0 | 3.0 | 0.04 | 0.05 | 0.05 | 85 | 1014.0 |
| 20260505095218 | 54 | 281 | 1.0 | 3.0 | 0.04 | 0.05 | 0.05 | 85 | 1014.0 |
| 20260505094718 | 54 | 284 | 0.0 | 2.0 | 0.03 | 0.04 | 0.04 | 84 | 1014.0 |
| 20260505094218 | 54 | 284 | 0.0 | 0.0 | 0.02 | 0.03 | 0.04 | 84 | 1014.0 |
| 20260505093933 | 54 | 285 | 0.0 | 1.0 | 0.02 | 0.03 | 0.03 | 84 | 1014.0 |
| 20260505093215 | 54 | 285 | 0.0 | 2.0 | 0.01 | 0.02 | 0.02 | 84 | 1014.1 |
| 20260505092714 | 54 | 285 | 0.0 | 2.0 | 0.01 | 0.02 | 0.02 | 84 | 1014.3 |
| 20260505092215 | 54 | 284 | 1.0 | 3.0 | 0.01 | 0.02 | 0.02 | 84 | 1014.3 |
| 20260505091714 | 54 | 284 | 2.0 | 3.0 | 0.01 | 0.02 | 0.02 | 84 | 1014.3 |
| 20260505091212 | 54 | 285 | 2.0 | 4.0 | 0.01 | 0.02 | 0.02 | 84 | 1014.3 |
| 20260505090712 | 54 | 287 | 2.0 | 4.0 | 0.00 | 0.01 | 0.01 | 84 | 1014.3 |
| 20260505090213 | 54 | 284 | 1.0 | 3.0 | 0.00 | 0.01 | 0.01 | 84 | 1014.3 |
| 20260505085712 | 54 | 285 | 1.0 | 2.0 | 0.00 | 0.01 | 0.01 | 84 | 1014.3 |
| 20260505085212 | 54 | 285 | 1.0 | 2.0 | 0.00 | 0.01 | 0.01 | 84 | 1014.3 |
| 20260505084710 | 54 | 285 | 1.0 | 2.0 | 0.00 | 0.01 | 0.01 | 84 | 1014.3 |
| 20260505084212 | 54 | 285 | 1.0 | 2.0 | 0.00 | 0.01 | 0.01 | 84 | 1014.2 |
| 20260505083710 | 54 | 285 | 0.0 | 2.0 | 0.00 | 0.01 | 0.01 | 84 | 1014.2 |
| 20260505083208 | 54 | 285 | 0.0 | 1.0 | 0.00 | 0.01 | 0.01 | 83 | 1014.3 |
| 20260505082656 | 54 | 285 | 0.0 | 1.0 | 0.00 | 0.01 | 0.01 | 83 | 1014.4 |
| 20260505082414 | 54 | 285 | 0.0 | 1.0 | 0.00 | 0.01 | 0.01 | 83 | 1014.5 |
| 20260505081925 | 54 | 285 | 0.0 | 2.0 | 0.00 | 0.01 | 0.01 | 83 | 1014.6 |
| 20260505081153 | 54 | 285 | 1.0 | 4.0 | 0.00 | 0.01 | 0.01 | 83 | 1014.6 |
| 20260505080654 | 54 | 285 | 2.0 | 4.0 | 0.00 | 0.01 | 0.01 | 83 | 1014.6 |
| 20260505080154 | 54 | 290 | 1.0 | 4.0 | 0.01 | 0.01 | 0.01 | 83 | 1014.7 |
| 20260505075916 | 54 | 291 | 1.0 | 4.0 | 0.01 | 0.01 | 0.01 | 83 | 1014.8 |
| 20260505075150 | 54 | 305 | 2.0 | 4.0 | 0.01 | 0.01 | 0.01 | 83 | 1014.8 |
| 20260505074649 | 54 | 309 | 2.0 | 4.0 | 0.01 | 0.01 | 0.01 | 83 | 1014.8 |
| 20260505074148 | 54 | 311 | 3.0 | 7.0 | 0.01 | 0.01 | 0.01 | 83 | 1014.9 |
| 20260505073646 | 54 | 319 | 3.0 | 7.0 | 0.01 | 0.01 | 0.01 | 82 | 1014.8 |
| 20260505073146 | 55 | 309 | 3.0 | 9.0 | 0.01 | 0.01 | 0.01 | 82 | 1014.7 |
| 20260505072910 | 55 | 304 | 3.0 | 9.0 | 0.01 | 0.01 | 0.01 | 82 | 1014.8 |
| 20260505072146 | 55 | 305 | 4.0 | 8.0 | 0.01 | 0.01 | 0.01 | 82 | 1015.0 |
| 20260505071645 | 55 | 305 | 3.0 | 8.0 | 0.01 | 0.01 | 0.01 | 81 | 1014.9 |
| 20260505071138 | 55 | 315 | 3.0 | 8.0 | 0.01 | 0.01 | 0.01 | 81 | 1014.7 |
| 20260505070636 | 55 | 306 | 3.0 | 8.0 | 0.01 | 0.01 | 0.01 | 81 | 1014.7 |
| 20260505070351 | 55 | 328 | 4.0 | 9.0 | 0.00 | 0.00 | 0.00 | 80 | 1014.8 |
| 20260505065635 | 55 | 304 | 4.0 | 9.0 | 0.00 | 0.00 | 0.00 | 80 | 1014.7 |
| 20260505065133 | 56 | 308 | 3.0 | 8.0 | 0.00 | 0.00 | 0.00 | 80 | 1014.6 |
| 20260505064633 | 56 | 319 | 3.0 | 8.0 | 0.00 | 0.00 | 0.00 | 79 | 1014.6 |
| 20260505064132 | 56 | 333 | 4.0 | 8.0 | 0.00 | 0.00 | 0.00 | 79 | 1014.6 |
| 20260505063631 | 56 | 323 | 4.0 | 8.0 | 0.00 | 0.00 | 0.00 | 78 | 1014.6 |
| 20260505063132 | 56 | 307 | 3.0 | 8.0 | 0.00 | 0.00 | 0.00 | 78 | 1014.4 |
| 20260505062632 | 56 | 314 | 3.0 | 7.0 | 0.00 | 0.00 | 0.00 | 78 | 1014.4 |
| 20260505062132 | 56 | 304 | 3.0 | 8.0 | 0.00 | 0.00 | 0.00 | 78 | 1014.4 |
| 20260505061632 | 56 | 309 | 4.0 | 8.0 | 0.00 | 0.00 | 0.00 | 78 | 1014.4 |
| 20260505061353 | 56 | 327 | 4.0 | 8.0 | 0.00 | 0.00 | 0.00 | 78 | 1014.2 |
| 20260505060630 | 56 | 344 | 4.0 | 8.0 | 0.00 | 0.00 | 0.00 | 78 | 1014.3 |
| 20260505060335 | 56 | 344 | 2.0 | 5.0 | 0.00 | 0.00 | 0.00 | 78 | 1014.4 |
| 20260505060213 | 56 | 315 | 3.0 | 8.0 | 0.00 | 0.00 | 0.00 | 78 | 1014.4 |
| 20260505055127 | 56 | 323 | 2.0 | 4.0 | 0.00 | 0.00 | 0.00 | 78 | 1014.2 |
| 20260505054619 | 56 | 348 | 2.0 | 4.0 | 0.00 | 0.00 | 0.00 | 78 | 1014.2 |
| 20260505054118 | 56 | 334 | 2.0 | 4.0 | 0.00 | 0.00 | 0.00 | 78 | 1014.1 |
| 20260505053618 | 56 | 338 | 2.0 | 5.0 | 0.00 | 0.00 | 0.00 | 78 | 1014.1 |
| 20260505053117 | 56 | 338 | 3.0 | 6.0 | 0.00 | 0.00 | 0.00 | 78 | 1014.2 |
| 20260505052618 | 56 | 355 | 3.0 | 6.0 | 0.00 | 0.00 | 0.00 | 78 | 1014.1 |
| 20260505052118 | 56 | 343 | 3.0 | 5.0 | 0.00 | 0.00 | 0.00 | 78 | 1014.1 |
| 20260505051613 | 56 | 312 | 3.0 | 5.0 | 0.00 | 0.00 | 0.00 | 78 | 1014.2 |
| 20260505051338 | 56 | 313 | 3.0 | 8.0 | 0.00 | 0.00 | 0.00 | 77 | 1014.3 |
| 20260505050610 | 56 | 309 | 4.0 | 8.0 | 0.00 | 0.00 | 0.00 | 77 | 1014.3 |
| 20260505050110 | 56 | 305 | 3.0 | 8.0 | 0.00 | 0.00 | 0.00 | 77 | 1014.4 |
| 20260505041601 | 58 | 335 | 8.0 | 15.0 | 0.00 | 0.00 | 0.00 | 72 | 1014.7 |
| 20260505041333 | 58 | 325 | 8.0 | 15.0 | 0.00 | 0.00 | 0.00 | 71 | 1014.5 |
| 20260505040554 | 58 | 309 | 7.0 | 14.0 | 0.00 | 0.00 | 0.00 | 70 | 1014.4 |
| 20260505040054 | 58 | 315 | 6.0 | 13.0 | 0.00 | 0.00 | 0.00 | 69 | 1014.3 |
| 20260505035812 | 58 | 317 | 6.0 | 14.0 | 0.00 | 0.00 | 0.00 | 69 | 1014.3 |
| 20260505035051 | 58 | 319 | 6.0 | 14.0 | 0.00 | 0.00 | 0.00 | 69 | 1014.2 |
| 20260505034818 | 58 | 311 | 6.0 | 12.0 | 0.00 | 0.00 | 0.00 | 68 | 1014.2 |
| 20260505034310 | 58 | 319 | 7.0 | 12.0 | 0.00 | 0.00 | 0.00 | 67 | 1014.1 |
| 20260505033547 | 59 | 329 | 7.0 | 12.0 | 0.00 | 0.00 | 0.00 | 67 | 1014.1 |
| 20260505033046 | 59 | 313 | 6.0 | 11.0 | 0.00 | 0.00 | 0.00 | 67 | 1014.0 |
| 20260505032545 | 59 | 316 | 6.0 | 11.0 | 0.00 | 0.00 | 0.00 | 67 | 1013.9 |
| 20260505032045 | 59 | 313 | 6.0 | 10.0 | 0.00 | 0.00 | 0.00 | 66 | 1013.8 |
| 20260505031546 | 60 | 301 | 7.0 | 11.0 | 0.00 | 0.00 | 0.00 | 66 | 1013.7 |
| 20260505031045 | 60 | 307 | 6.0 | 11.0 | 0.00 | 0.00 | 0.00 | 66 | 1013.6 |
| 20260505030545 | 60 | 301 | 5.0 | 11.0 | 0.00 | 0.00 | 0.00 | 65 | 1013.6 |
| 20260505030045 | 60 | 322 | 6.0 | 12.0 | 0.00 | 0.00 | 0.00 | 65 | 1013.6 |
| 20260505025537 | 61 | 302 | 6.0 | 12.0 | 0.00 | 0.00 | 0.00 | 65 | 1013.6 |
| 20260505025036 | 61 | 344 | 5.0 | 10.0 | 0.00 | 0.00 | 0.00 | 64 | 1013.6 |
| 20260505024537 | 61 | 309 | 5.0 | 10.0 | 0.00 | 0.00 | 0.00 | 64 | 1013.5 |
| 20260505024037 | 62 | 329 | 5.0 | 9.0 | 0.00 | 0.00 | 0.00 | 63 | 1013.4 |
| 20260505023536 | 62 | 295 | 5.0 | 11.0 | 0.00 | 0.00 | 0.00 | 63 | 1013.3 |
| 20260505023034 | 62 | 311 | 4.0 | 11.0 | 0.00 | 0.00 | 0.00 | 62 | 1013.3 |
| 20260505022534 | 62 | 289 | 3.0 | 8.0 | 0.00 | 0.00 | 0.00 | 61 | 1013.4 |
| 20260505022259 | 63 | 271 | 3.0 | 7.0 | 0.00 | 0.00 | 0.00 | 61 | 1013.4 |
| 20260505021757 | 63 | 277 | 4.0 | 7.0 | 0.00 | 0.00 | 0.00 | 60 | 1013.4 |
| 20260505021032 | 63 | 275 | 3.0 | 7.0 | 0.00 | 0.00 | 0.00 | 59 | 1013.5 |
| 20260505020530 | 63 | 284 | 3.0 | 7.0 | 0.00 | 0.00 | 0.00 | 59 | 1013.6 |
| 20260505020030 | 63 | 295 | 3.0 | 8.0 | 0.00 | 0.00 | 0.00 | 59 | 1013.5 |
| 20260505015525 | 63 | 278 | 3.0 | 8.0 | 0.00 | 0.00 | 0.00 | 58 | 1013.5 |
| 20260505015025 | 63 | 286 | 3.0 | 7.0 | 0.00 | 0.00 | 0.00 | 58 | 1013.5 |
| 20260505014524 | 63 | 286 | 3.0 | 7.0 | 0.00 | 0.00 | 0.00 | 56 | 1013.6 |
| 20260505014254 | 63 | 271 | 3.0 | 7.0 | 0.00 | 0.00 | 0.00 | 55 | 1013.6 |
| 20260505013521 | 63 | 279 | 3.0 | 7.0 | 0.00 | 0.00 | 0.00 | 54 | 1013.6 |
| 20260505013021 | 63 | 306 | 3.0 | 7.0 | 0.00 | 0.00 | 0.00 | 54 | 1013.7 |
| 20260505012520 | 64 | 284 | 3.0 | 7.0 | 0.00 | 0.00 | 0.00 | 53 | 1013.7 |
| 20260505012016 | 64 | 264 | 3.0 | 7.0 | 0.00 | 0.00 | 0.00 | 53 | 1013.8 |
| 20260505011516 | 64 | 244 | 4.0 | 7.0 | 0.00 | 0.00 | 0.00 | 53 | 1013.9 |
| 20260505011014 | 64 | 257 | 5.0 | 9.0 | 0.00 | 0.00 | 0.00 | 54 | 1013.8 |
| 20260505010513 | 64 | 241 | 5.0 | 9.0 | 0.00 | 0.00 | 0.00 | 54 | 1013.8 |
| 20260505010236 | 64 | 269 | 4.0 | 8.0 | 0.00 | 0.00 | 0.00 | 56 | 1013.9 |
| 20260505005512 | 64 | 263 | 3.0 | 8.0 | 0.00 | 0.00 | 0.00 | 56 | 1013.9 |
| 20260505005011 | 64 | 283 | 3.0 | 8.0 | 0.00 | 0.00 | 0.00 | 55 | 1013.8 |
| 20260505004729 | 64 | 283 | 3.0 | 7.0 | 0.00 | 0.00 | 0.00 | 56 | 1013.8 |
| 20260505004009 | 64 | 265 | 4.0 | 8.0 | 0.00 | 0.00 | 0.00 | 57 | 1013.9 |
| 20260505003509 | 64 | 279 | 5.0 | 9.0 | 0.00 | 0.00 | 0.00 | 57 | 1013.8 |
| 20260505003002 | 65 | 257 | 5.0 | 9.0 | 0.00 | 0.00 | 0.00 | 57 | 1013.8 |
| 20260505002500 | 65 | 290 | 5.0 | 9.0 | 0.00 | 0.00 | 0.00 | 57 | 1013.8 |
| 20260505001959 | 65 | 276 | 4.0 | 8.0 | 0.00 | 0.00 | 0.00 | 57 | 1013.8 |
| 20260505001455 | 65 | 244 | 3.0 | 7.0 | 0.00 | 0.00 | 0.00 | 56 | 1013.9 |
| 20260505000954 | 65 | 217 | 3.0 | 6.0 | 0.00 | 0.00 | 0.00 | 56 | 1013.9 |
| 20260505000452 | 65 | 225 | 3.0 | 7.0 | 0.00 | 0.00 | 0.00 | 55 | 1013.9 |
| 20260504235953 | 65 | 254 | 3.0 | 7.0 | 0.00 | 0.00 | 0.00 | 55 | 1013.9 |
| 20260504235452 | 65 | 259 | 3.0 | 8.0 | 0.00 | 0.00 | 0.00 | 55 | 1013.9 |
| 20260504234950 | 65 | 254 | 2.0 | 8.0 | 0.00 | 0.00 | 0.00 | 55 | 1013.9 |
| 20260504234447 | 65 | 225 | 2.0 | 7.0 | 0.00 | 0.00 | 0.00 | 55 | 1013.9 |
| 20260504233946 | 65 | 225 | 3.0 | 7.0 | 0.00 | 0.00 | 0.00 | 55 | 1013.9 |
| 20260504233706 | 65 | 238 | 3.0 | 7.0 | 0.00 | 0.00 | 0.00 | 55 | 1013.9 |
| 20260504232944 | 65 | 228 | 3.0 | 7.0 | 0.00 | 0.00 | 0.00 | 55 | 1013.9 |
| 20260504232441 | 65 | 222 | 3.0 | 6.0 | 0.00 | 0.00 | 0.00 | 56 | 1013.8 |
| 20260504231941 | 65 | 205 | 3.0 | 7.0 | 0.00 | 0.00 | 0.00 | 56 | 1013.9 |
| 20260504231440 | 65 | 213 | 3.0 | 7.0 | 0.00 | 0.00 | 0.00 | 57 | 1013.8 |
| 20260504230924 | 65 | 201 | 2.0 | 6.0 | 0.00 | 0.00 | 0.00 | 57 | 1013.9 |
| 20260504230421 | 65 | 150 | 1.0 | 3.0 | 0.00 | 0.00 | 0.00 | 58 | 1013.8 |
| 20260504225921 | 65 | 146 | 1.0 | 5.0 | 0.00 | 0.00 | 0.00 | 58 | 1013.8 |
| 20260504225420 | 65 | 146 | 1.0 | 5.0 | 0.00 | 0.00 | 0.00 | 59 | 1013.8 |
| 20260504224917 | 65 | 160 | 2.0 | 5.0 | 0.00 | 0.00 | 0.00 | 59 | 1013.8 |
| 20260504224647 | 65 | 5 | 3.0 | 6.0 | 0.00 | 0.00 | 0.00 | 58 | 1013.8 |
| 20260504223917 | 65 | 46 | 3.0 | 6.0 | 0.00 | 0.00 | 0.00 | 58 | 1013.8 |
| 20260504223418 | 65 | 13 | 3.0 | 10.0 | 0.00 | 0.00 | 0.00 | 58 | 1013.8 |
| 20260504223141 | 65 | 13 | 4.0 | 12.0 | 0.00 | 0.00 | 0.00 | 58 | 1013.9 |
| 20260504222417 | 65 | 344 | 6.0 | 12.0 | 0.00 | 0.00 | 0.00 | 58 | 1013.9 |
| 20260504221913 | 65 | 329 | 6.0 | 12.0 | 0.00 | 0.00 | 0.00 | 57 | 1013.9 |
| 20260504221413 | 66 | 344 | 6.0 | 12.0 | 0.00 | 0.00 | 0.00 | 57 | 1013.9 |
| 20260504220911 | 66 | 335 | 7.0 | 12.0 | 0.00 | 0.00 | 0.00 | 56 | 1013.9 |
| 20260504220410 | 66 | 343 | 6.0 | 14.0 | 0.00 | 0.00 | 0.00 | 56 | 1014.0 |
| 20260504215908 | 67 | 333 | 5.0 | 14.0 | 0.00 | 0.00 | 0.00 | 55 | 1014.0 |
| 20260504215408 | 67 | 300 | 4.0 | 10.0 | 0.00 | 0.00 | 0.00 | 54 | 1014.0 |
| 20260504214909 | 67 | 310 | 2.0 | 6.0 | 0.00 | 0.00 | 0.00 | 54 | 1014.1 |
| 20260504214409 | 67 | 234 | 2.0 | 8.0 | 0.00 | 0.00 | 0.00 | 54 | 1014.1 |
| 20260504214134 | 67 | 38 | 3.0 | 8.0 | 0.00 | 0.00 | 0.00 | 53 | 1014.1 |